Location: Hickory_CSC
(35.7330°N, 81.3330°W)
Time: 06:27:15
(UTC-04:00)

Cosmos 1356 Rocket - Visible Passes

Search period start: 23 April 2014 00:00
Search period end: 03 May 2014 00:00
Orbit: 549 x 610 km, 81.2° (Epoch: 22 April)

Date Brightness Start Highest point End Pass type
(mag) Time Alt. Az. Time Alt. Az. Time Alt. Az.
23 Apr 3.6 04:32:35 10° N 04:36:40 67° E 04:37:34 50° SE visible
24 Apr 3.2 04:37:29 10° N 04:41:36 82° W 04:41:39 81° WSW visible
25 Apr 3.7 04:42:28 10° NNW 04:45:51 48° WNW 04:45:51 48° WNW visible
26 Apr 6.2 03:11:53 10° NE 03:13:52 14° ENE 03:13:52 14° ENE visible
26 Apr 4.5 04:47:34 10° NNW 04:50:10 30° WNW 04:50:10 30° WNW visible
27 Apr 5.9 03:16:01 10° NNE 03:18:15 19° ENE 03:18:15 19° ENE visible
27 Apr 5.1 04:52:46 10° NW 04:54:32 20° WNW 04:54:32 20° WNW visible
28 Apr 5.7 03:20:28 10° NNE 03:22:41 23° NE 03:22:41 23° NE visible
28 Apr 5.6 04:58:11 10° NW 04:58:58 13° WNW 04:58:58 13° WNW visible
29 Apr 5.5 03:25:04 10° N 03:27:09 26° NNE 03:27:09 26° NNE visible
30 Apr 5.4 03:29:47 10° N 03:31:40 26° N 03:31:40 26° N visible
01 May 5.5 03:34:35 10° N 03:36:13 23° N 03:36:13 23° N visible
02 May 5.6 03:39:29 10° NNW 03:40:47 20° NNW 03:40:47 20° NNW visible
